GFSNE_925_spd_057.txt.gz
Wind_Speed
9 10 10 9 7 9 4 3 1 1 3 4 4 10 13 14 14 14 14 15 19 23 23 24 26 28 28 27 29 30 31 31 32 32 31 30 29 27
13 11 9 13 12 8 6 5 6 5 2 5 12 7 5 8 9 13 19 23 23 25 25 23 25 29 32 29 30 32 33 34 35 36 36 37 35 33
14 14 14 14 12 12 9 6 9 10 8 15 15 15 19 20 18 19 22 25 27 28 27 26 26 27 29 32 27 29 30 32 34 36 37 38 37 39
19 20 18 15 18 14 15 12 11 8 9 14 17 18 18 16 19 23 27 28 28 27 26 28 31 31 32 33 31 33 33 31 31 32 33 35 34 34
21 21 19 18 16 15 15 14 12 12 10 11 15 15 20 24 25 26 15 16 16 18 18 18 25 20 19 23 19 19 22 25 25 30 34 36 38 37
21 22 20 20 20 19 19 19 19 20 21 22 21 21 21 24 17 19 23 22 25 28 30 21 19 20 26 20 21 21 21 21 19 20 23 23 24 24
24 26 23 23 24 23 22 22 21 21 21 22 23 20 17 18 21 26 29 30 26 21 16 18 26 20 21 24 19 22 22 25 23 21 21 20 21 21
30 28 27 24 25 26 25 24 24 23 23 20 23 23 29 31 32 30 26 23 6 13 17 31 23 23 23 17 14 17 15 19 17 22 24 23 22 22
32 32 30 28 28 26 26 26 29 30 31 31 30 32 29 30 27 26 27 26 23 28 21 26 21 21 14 10 18 12 14 16 20 26 30 34 27 28
35 32 31 31 28 25 26 25 31 31 30 31 32 33 34 30 27 28 29 28 26 27 23 11 19 16 16 13 8 14 17 20 25 27 31 29 37 36
38 36 35 34 33 30 29 30 26 24 22 22 22 24 26 24 23 27 27 21 17 15 18 14 10 15 7 3 9 20 18 24 25 31 29 39 36 34
41 40 37 35 31 25 28 35 34 34 32 30 29 27 25 22 20 22 22 18 18 7 6 4 6 6 4 3 15 16 19 23 29 28 38 32 33 36
33 35 41 40 39 38 38 40 39 39 33 28 23 20 23 25 23 21 17 17 18 18 19 12 4 5 3 5 7 4 22 22 26 31 32 30 34 32
32 35 33 35 33 32 33 35 36 37 33 27 24 25 25 21 18 15 15 20 21 20 16 12 6 6 3 4 5 13 20 23 20 30 29 29 32 35
36 32 28 28 32 34 33 31 37 39 38 33 30 25 22 19 18 19 22 18 12 8 10 9 12 12 5 3 4 8 15 18 23 27 26 27 30 33
46 38 34 31 26 24 21 20 23 25 28 27 23 19 18 17 19 21 16 10 9 8 5 5 8 7 5 4 3 2 9 9 20 23 22 24 31 32
43 36 30 32 31 26 20 16 17 18 19 19 19 18 16 17 19 11 11 10 10 4 3 5 6 7 6 4 2 2 6 9 13 20 23 25 26 29
37 25 26 27 27 25 25 25 23 22 23 20 17 15 16 12 11 9 7 5 5 6 1 6 2 3 4 4 4 3 5 8 10 14 17 20 24 27
25 26 23 24 24 26 28 27 27 25 19 16 15 12 10 10 13 11 8 6 9 10 8 5 5 5 1 2 5 6 5 4 6 8 11 16 15 18
25 21 18 13 16 17 18 18 13 12 12 11 10 8 5 3 7 9 10 7 5 2 3 4 3 3 2 3 4 8 9 6 5 4 4 8 11 10
17 16 18 14 12 11 10 2 4 8 10 11 9 6 3 2 4 5 4 2 3 4 5 5 7 9 9 6 4 10 14 12 7 3 2 2 2 2
28 25 23 22 18 13 4 6 5 1 4 5 5 4 3 1 1 1 1 2 4 6 11 12 9 9 10 8 12 12 17 14 12 8 6 4 2 3
30 31 29 23 24 23 20 15 7 8 5 2 3 4 3 4 5 6 4 2 3 5 7 8 5 5 7 11 12 9 9 17 16 18 15 12 10 9

GFSNE_925_spd_060.txt.gz
Wind_Speed
11 10 10 8 6 5 5 4 2 1 2 1 2 9 9 19 19 19 20 21 21 24 24 25 28 27 27 26 26 29 31 30 29 30 31 30 30 28
12 11 11 11 10 7 6 4 4 2 1 3 10 8 8 9 11 15 21 23 24 27 29 30 31 30 30 32 33 30 31 32 28 28 30 31 31 32
13 13 14 10 10 8 8 8 6 4 5 13 13 13 15 18 16 17 21 25 26 25 26 28 28 27 24 29 26 21 19 24 27 28 31 32 31 30
16 16 14 10 11 13 11 10 11 10 9 13 15 15 17 17 22 22 22 14 18 18 19 18 22 21 16 20 18 15 17 17 16 15 18 21 25 27
17 18 19 18 18 14 14 13 12 12 10 12 17 20 22 22 22 21 13 22 29 27 23 16 13 19 21 16 20 15 13 14 14 14 14 15 16 17
22 21 20 21 19 19 18 18 17 17 18 20 21 22 21 21 18 17 26 31 29 25 17 13 23 19 17 18 14 15 13 14 13 14 16 16 17 18
25 24 24 21 22 20 20 21 20 21 21 21 22 23 23 21 23 28 30 27 27 21 16 22 27 22 21 15 13 15 11 13 16 20 22 23 20 18
28 27 26 25 25 23 23 23 23 25 25 24 25 23 27 30 31 28 26 24 8 17 14 28 25 21 17 13 11 7 11 14 19 22 25 27 30 30
32 31 29 28 27 26 26 24 24 25 27 28 28 31 32 32 29 28 30 26 22 29 22 24 23 17 13 11 5 8 13 16 19 22 25 32 33 30
36 35 33 31 29 27 27 27 27 27 27 29 32 34 33 31 30 25 26 26 27 28 20 8 14 12 11 7 7 13 16 18 20 24 28 31 33 34
37 36 36 34 32 28 28 29 30 30 28 28 24 24 24 25 25 25 26 21 11 16 18 12 7 6 2 4 6 14 15 18 23 25 29 30 34 36
40 40 38 38 36 33 31 32 34 36 33 32 30 28 27 26 23 22 22 23 17 7 4 5 4 2 2 6 6 12 18 18 21 28 28 29 32 35
34 34 41 40 38 38 35 34 36 36 36 34 32 30 27 22 20 21 21 21 21 18 17 12 4 4 4 3 6 6 17 18 19 26 26 27 28 31
33 37 39 40 38 37 38 40 41 40 39 36 33 33 28 25 23 19 15 12 13 20 19 14 7 10 7 4 4 5 11 12 15 22 25 26 28 32
39 34 37 36 34 33 32 32 33 33 34 32 31 33 34 27 21 18 17 17 20 14 9 11 13 14 11 7 4 5 4 7 14 18 20 23 27 31
48 41 38 36 33 32 30 31 32 30 29 30 30 31 27 21 19 17 19 18 11 9 8 7 9 11 12 10 8 7 6 7 14 17 17 18 23 26
44 40 33 35 33 33 31 27 24 23 23 23 23 21 20 19 20 18 17 12 12 8 8 7 9 10 8 8 8 7 6 9 11 14 14 15 19 22
37 27 28 28 29 30 31 31 27 26 24 20 21 22 20 18 18 16 12 14 13 11 8 10 10 7 6 7 11 9 8 8 7 9 12 12 13 18
27 27 26 28 29 26 28 28 25 27 27 26 26 22 15 14 13 13 11 11 8 11 13 10 7 8 3 3 4 9 10 9 7 8 6 9 9 12
32 26 27 26 25 24 22 20 19 17 14 8 1 6 8 9 8 9 11 14 14 10 8 6 5 5 5 4 4 7 10 12 10 9 7 5 6 6
30 27 29 27 25 25 23 22 25 25 26 23 11 7 9 6 7 8 8 8 7 6 5 4 3 5 5 5 5 11 14 15 15 13 9 8 5 5
30 29 32 32 29 27 25 27 24 23 23 21 27 30 22 15 10 11 10 9 7 6 5 2 5 7 6 7 10 11 12 13 14 17 16 13 6 3
22 27 28 28 29 29 26 23 20 21 22 24 25 20 17 16 10 12 11 10 7 7 5 3 2 3 4 5 7 6 7 12 16 17 23 21 18 14

GFSNE_925_spd_063.txt.gz
Wind_Speed
12 9 8 6 4 3 6 1 1 1 2 3 3 9 12 12 11 13 18 22 22 23 25 28 28 29 28 27 28 28 25 26 30 29 28 28 28 29
14 13 12 10 7 5 3 2 2 1 1 2 8 12 11 13 15 15 18 20 18 19 21 22 22 20 19 19 20 18 17 15 16 17 19 22 24 25
15 13 13 11 10 7 6 5 5 3 4 7 10 13 14 16 18 20 18 12 15 28 28 24 22 20 17 18 16 14 13 12 11 12 12 12 13 13
16 15 15 12 11 10 10 8 7 8 7 10 15 14 19 21 23 21 19 15 26 29 25 17 15 20 17 14 14 11 8 9 11 13 12 12 12 13
18 17 16 15 16 15 12 13 11 10 10 11 15 20 23 21 21 21 20 26 28 24 23 12 17 21 17 14 10 9 10 9 10 11 13 15 16 18
22 21 20 19 20 19 17 17 15 15 15 16 18 20 20 20 20 21 29 27 26 29 22 16 21 20 16 13 9 9 8 11 12 15 17 17 18 19
26 25 25 24 21 20 20 19 18 19 19 19 20 22 23 22 21 24 25 25 28 26 20 26 23 19 15 11 7 6 9 12 16 19 21 22 24 23
30 28 27 25 24 24 23 21 21 22 23 22 23 23 26 25 25 25 25 23 7 22 19 26 23 16 10 5 3 5 8 13 17 19 22 25 26 27
34 32 30 29 27 26 25 25 26 24 24 25 27 28 29 28 27 28 26 21 19 27 14 21 17 11 4 2 1 6 11 15 17 19 23 25 28 29
38 35 33 32 31 28 26 26 26 26 27 27 28 28 26 25 24 22 20 23 23 26 16 6 16 8 2 5 1 6 14 16 17 20 22 26 29 30
42 39 36 36 34 31 30 29 29 30 27 26 26 26 26 26 25 24 24 21 12 19 20 9 9 5 8 7 4 6 12 16 18 23 24 26 29 31
40 41 42 39 36 33 31 31 32 34 30 29 28 27 26 25 22 21 21 20 17 10 10 7 7 6 3 10 8 6 8 14 15 20 24 27 30 33
35 34 38 42 39 37 36 34 36 34 34 33 31 30 29 27 22 20 18 19 22 22 18 11 6 9 6 2 7 10 8 11 12 18 21 25 28 30
34 32 37 40 40 38 37 37 37 36 36 36 32 35 35 31 26 22 19 21 19 18 17 18 9 11 9 5 7 6 8 10 11 18 20 21 23 26
40 34 34 38 37 37 36 35 32 32 35 37 36 35 31 31 28 21 19 17 16 18 20 17 17 16 16 12 6 7 6 8 8 14 18 21 24 24
46 44 41 39 38 38 36 34 32 32 33 33 33 31 26 24 21 17 17 16 15 19 14 14 15 15 16 17 13 11 9 5 9 12 14 15 16 19
44 37 32 36 37 37 38 37 35 31 32 30 26 23 24 21 19 16 15 13 14 15 11 11 10 10 12 11 11 12 12 11 10 9 11 15 12 16
34 31 30 31 32 31 29 31 37 35 33 29 25 23 22 20 18 16 12 13 13 13 14 13 12 9 7 10 13 15 15 14 11 10 9 13 13 13
31 27 29 29 30 29 29 30 31 36 38 33 31 29 26 22 20 18 16 14 14 12 11 13 13 12 4 4 8 12 15 13 13 11 10 11 13 14
30 27 28 28 27 27 29 30 33 32 31 32 33 30 28 26 23 22 22 20 20 15 13 14 15 15 13 6 4 5 9 15 14 14 14 11 13 14
37 31 27 27 30 32 33 33 33 32 31 30 29 32 33 32 30 26 24 22 24 22 22 18 17 13 11 8 5 7 10 10 12 15 13 11 11 8
30 33 31 31 32 30 33 33 31 30 31 32 32 28 24 22 19 20 23 23 21 19 17 13 12 12 12 10 10 9 11 10 8 10 14 17 11 4
29 28 25 27 27 28 29 30 28 27 26 24 22 19 20 20 19 20 16 13 9 8 7 9 8 9 10 8 7 7 7 9 13 13 14 12 16 21

GFSNE_925_spd_069.txt.gz
Wind_Speed
6 5 3 2 1 1 3 2 4 3 3 3 2 8 9 8 12 15 14 13 10 19 20 20 14 18 18 16 14 12 11 11 10 10 11 12 12 13
7 7 7 5 4 3 2 1 1 2 3 3 6 8 11 11 13 15 13 11 15 17 19 18 11 17 18 16 15 14 12 9 9 11 12 12 13 14
10 9 8 8 6 5 5 5 5 4 8 8 7 9 11 12 15 15 12 12 15 15 19 14 11 14 16 15 14 11 9 7 9 11 13 15 15 16
10 10 10 9 8 7 8 8 8 7 8 10 10 10 11 13 15 14 12 13 14 15 18 10 13 13 14 13 9 8 7 8 11 13 14 14 15 15
12 12 11 10 10 9 9 9 8 8 9 10 13 11 12 12 15 14 13 13 13 17 17 12 14 12 11 10 7 6 8 11 13 15 15 15 15 16
15 14 14 13 12 11 10 11 10 10 11 12 13 13 12 12 13 14 15 14 16 14 14 12 13 10 8 5 3 4 8 10 13 13 14 15 16 17
17 16 16 17 17 15 13 12 11 12 13 13 15 15 14 12 13 14 15 15 16 9 13 11 9 6 6 3 2 4 6 10 13 14 16 18 19 21
19 20 19 20 19 18 18 19 18 15 15 15 17 17 15 14 13 14 16 13 10 9 14 14 9 5 2 3 5 4 5 10 13 15 17 19 21 22
20 20 20 19 21 18 18 19 20 22 23 22 21 21 19 17 15 16 15 14 15 16 14 15 9 7 4 8 7 6 6 9 12 14 17 20 22 22
24 24 25 23 21 21 18 17 18 18 21 24 25 24 21 18 16 16 15 16 16 16 12 10 11 10 6 8 10 10 8 9 12 15 17 20 22 20
31 30 29 28 31 31 26 22 21 22 20 23 25 27 25 23 21 19 17 17 18 16 10 12 12 8 7 8 12 14 12 11 11 13 16 18 20 19
33 33 35 37 36 36 33 25 24 26 20 19 19 20 22 24 22 23 19 19 20 15 13 10 12 6 6 6 9 15 15 14 11 12 13 16 18 12
33 32 35 37 41 41 39 31 31 27 21 19 20 20 18 17 17 19 22 21 21 22 16 13 13 12 9 6 8 13 13 12 10 9 10 11 14 15
32 32 32 35 38 37 38 41 38 33 24 23 23 23 22 21 20 20 20 21 22 26 21 19 14 15 16 12 11 8 12 12 11 8 7 9 11 14
35 33 32 31 33 33 32 32 31 29 25 24 25 25 23 22 19 18 18 20 20 21 24 24 21 20 17 14 13 11 9 10 10 9 8 6 6 5
43 36 32 29 28 26 24 27 31 26 26 26 26 25 22 20 19 18 18 18 18 19 19 22 24 24 20 18 18 17 12 8 8 10 8 8 7 5
28 27 28 28 28 27 26 26 25 24 27 28 27 25 23 22 22 20 19 19 21 20 17 16 19 23 21 19 12 16 15 12 11 10 10 9 9 6
24 28 27 27 26 25 25 26 27 30 30 27 28 26 26 24 23 21 20 21 21 20 19 17 14 11 11 16 22 16 12 12 11 11 11 11 12 9
25 25 27 26 26 25 26 27 28 28 26 27 27 26 25 25 24 24 22 22 23 22 21 19 18 15 10 8 10 17 17 12 10 10 11 12 12 10
29 28 25 25 24 24 25 25 25 24 23 25 24 25 25 25 24 24 24 26 24 22 18 19 20 20 20 16 16 9 16 12 10 11 11 11 11 15
34 32 29 27 27 28 27 26 26 27 28 27 28 27 25 24 24 24 23 24 23 20 17 17 19 20 16 10 8 9 7 12 13 10 9 12 11 10
29 29 31 29 30 29 29 29 27 27 30 31 30 28 27 27 26 24 24 23 26 23 18 14 12 13 16 16 13 10 7 8 10 12 13 14 11 9
34 30 28 28 28 29 29 29 29 30 30 30 29 27 26 25 25 25 27 26 21 16 14 15 14 13 12 11 10 8 8 9 9 8 9 13 15 18

GFSNE_925_spd_072.txt.gz
Wind_Speed
7 6 6 4 2 1 2 3 6 2 2 5 2 2 6 7 11 13 12 14 10 16 15 16 12 14 17 16 14 12 11 8 8 9 10 10 11 12
10 9 8 7 6 5 4 3 3 6 5 1 5 6 8 9 10 13 13 13 11 14 17 16 9 14 15 14 13 11 9 7 6 9 10 11 11 13
11 11 11 9 10 8 7 7 7 7 9 9 7 6 10 10 12 13 13 12 12 14 17 14 9 12 12 11 10 9 7 7 9 11 13 13 13 14
12 12 12 13 11 10 10 10 10 8 11 11 11 12 9 11 12 13 13 12 13 10 16 13 11 11 10 8 7 6 7 10 10 11 11 12 13 14
12 12 13 13 14 13 11 11 11 10 11 12 13 12 11 12 12 13 12 12 12 14 12 8 10 12 8 5 3 3 6 8 11 11 12 14 15 16
16 15 14 14 14 13 13 12 12 12 13 14 15 14 12 11 12 14 14 14 13 15 11 10 10 7 9 4 2 3 5 7 10 12 13 15 16 17
17 17 16 17 17 16 15 14 13 14 15 15 15 14 14 11 11 15 16 15 16 12 10 14 10 5 4 7 5 4 4 6 9 11 14 16 18 19
18 19 19 19 20 22 22 21 18 16 17 18 18 16 15 15 14 15 16 17 15 12 13 17 14 10 8 7 11 9 7 6 7 11 14 17 20 20
21 21 21 22 22 20 20 22 23 23 25 23 21 21 19 17 16 16 16 16 17 17 19 18 15 11 9 11 14 11 10 8 8 11 14 17 20 20
26 24 24 25 23 22 21 21 20 19 21 24 26 26 23 21 19 18 17 18 18 17 14 17 15 17 7 9 16 12 12 11 10 11 13 16 19 20
32 32 30 29 29 28 27 24 24 23 22 25 26 26 27 27 24 20 21 19 19 17 14 16 14 18 9 12 13 15 14 13 13 12 13 14 15 16
34 35 37 38 33 33 32 29 27 27 25 24 20 23 26 28 29 30 24 23 22 19 15 12 15 15 13 6 10 13 14 14 14 13 12 12 13 12
33 33 36 38 41 43 39 34 33 29 26 26 26 26 26 25 22 22 24 26 25 24 20 14 18 19 15 17 13 12 12 11 12 11 10 9 11 12
33 33 33 33 35 38 40 44 42 36 31 30 30 29 27 26 25 24 24 24 25 26 24 18 20 20 19 19 18 12 11 10 11 10 9 10 11 12
33 32 32 30 27 30 33 39 38 35 34 33 32 31 30 29 26 24 21 22 24 26 25 23 24 24 23 22 19 14 11 12 12 10 10 9 8 6
37 37 33 30 28 29 27 30 33 31 30 31 31 31 30 28 27 26 26 25 25 24 25 23 24 22 24 24 20 20 16 12 10 11 10 9 8 7
26 25 29 30 30 31 30 30 27 26 31 32 30 29 29 28 28 27 27 26 26 24 24 22 22 22 24 24 19 19 20 20 16 11 10 11 10 10
16 24 29 30 31 29 30 29 30 31 29 28 29 30 30 29 28 27 28 28 27 26 25 24 19 17 16 20 28 22 19 18 14 12 14 13 11 10
25 27 28 31 31 29 28 29 30 29 27 29 29 28 28 29 28 29 28 28 27 27 27 26 23 21 13 12 11 13 20 19 16 14 14 13 11 9
25 25 29 29 29 26 28 28 28 28 28 29 28 28 28 28 27 28 28 28 28 28 27 25 20 23 22 18 18 14 19 18 18 16 14 12 10 10
27 30 29 28 26 26 24 28 28 29 28 28 27 28 27 26 27 28 28 29 28 27 24 24 27 27 25 21 19 17 13 24 19 16 12 12 12 11
28 29 27 29 30 29 27 28 27 25 27 28 28 28 28 29 28 27 27 27 26 28 27 25 18 22 22 21 22 18 16 16 22 20 17 16 8 7
27 29 29 29 26 27 29 30 29 30 27 27 27 28 27 28 29 28 25 25 23 22 20 15 20 22 20 21 21 15 16 16 15 18 18 18 18 18

GFSNE_925_spd_075.txt.gz
Wind_Speed
7 7 10 8 7 4 2 7 10 3 7 6 6 3 4 8 9 10 11 12 14 8 11 20 14 13 15 15 13 11 9 7 8 10 10 11 11 12
12 13 12 13 6 6 6 4 7 10 5 3 4 4 5 10 8 12 12 16 16 8 8 18 14 14 13 12 11 10 8 8 9 10 11 11 13 15
12 8 10 13 10 10 9 9 8 8 10 12 9 4 4 10 11 12 12 14 7 7 9 15 12 13 11 10 8 7 7 9 9 11 11 11 13 16
14 14 13 14 15 17 10 8 10 9 10 11 13 15 14 11 11 14 13 12 12 11 13 13 8 10 9 8 5 4 6 7 9 10 11 12 14 17
14 14 15 15 15 16 13 16 14 13 13 14 14 14 14 13 13 14 13 12 12 8 14 8 11 8 7 6 4 3 5 6 8 9 10 12 15 17
15 15 15 16 16 16 16 14 15 14 13 14 16 16 15 13 11 14 13 13 14 14 11 9 14 10 8 5 4 4 4 5 6 9 11 13 15 16
18 17 19 18 18 18 17 18 16 16 16 16 16 16 14 12 10 12 17 16 15 15 14 10 10 11 11 7 6 5 6 5 6 8 10 13 15 16
21 21 20 19 22 23 25 25 18 13 16 17 18 17 15 14 15 15 16 17 17 14 15 16 17 15 14 9 11 8 10 8 8 7 10 13 15 16
22 20 22 23 25 22 23 26 27 26 26 25 20 20 20 17 17 17 17 17 19 20 19 19 15 16 15 13 11 11 13 12 9 8 9 11 14 15
25 22 25 26 23 23 23 22 23 24 27 29 30 32 27 25 23 21 20 21 20 21 20 18 17 15 17 12 14 14 14 15 13 10 9 10 12 14
32 33 29 27 27 29 25 24 24 25 24 28 28 28 27 25 24 21 22 21 20 20 19 18 17 17 18 17 14 13 12 14 15 13 11 9 10 11
32 35 39 38 35 32 33 29 29 29 24 26 21 27 31 33 31 31 25 25 23 21 22 19 16 16 16 15 10 15 15 12 13 14 13 11 9 9
32 30 33 36 40 43 40 34 35 30 28 30 29 29 29 27 25 25 28 28 26 25 26 20 19 18 18 19 18 15 16 13 13 12 10 9 9 8
33 30 30 33 34 38 41 45 46 42 34 32 31 29 27 27 27 27 28 33 30 28 26 27 21 21 20 21 18 12 9 11 12 11 11 12 11 9
37 34 32 31 24 20 34 37 38 42 34 31 32 32 30 30 30 29 29 22 27 28 27 28 27 25 24 24 21 22 13 11 16 17 12 12 10 8
41 40 41 35 32 29 20 25 31 30 31 31 31 32 31 31 30 29 29 29 26 25 29 31 33 29 24 24 25 23 20 11 11 21 18 13 12 10
31 28 28 29 31 31 29 29 28 26 29 32 31 29 28 29 30 29 29 26 25 24 24 24 30 33 27 24 21 21 19 20 18 19 21 15 14 15
16 24 26 27 27 27 27 28 29 31 29 27 27 30 29 28 27 26 28 27 25 24 24 24 23 21 23 23 25 23 22 23 20 17 24 17 15 14
22 28 24 24 26 26 27 27 27 27 29 30 29 26 26 27 27 27 26 25 25 25 26 25 23 21 11 11 19 25 25 22 22 20 21 18 15 15
28 27 27 27 29 27 27 27 24 23 23 24 24 25 27 25 23 24 25 25 26 26 24 24 25 25 23 15 20 19 23 24 19 21 23 18 14 13
27 30 31 30 29 30 28 22 23 22 22 21 22 24 24 24 25 25 25 25 25 24 24 25 28 27 23 21 18 22 23 23 26 19 22 19 19 17
27 28 29 30 30 28 26 25 25 23 23 28 29 29 26 27 30 28 28 27 25 25 30 30 23 19 16 20 22 22 23 22 26 30 17 19 13 6
25 26 26 27 29 28 28 26 27 27 26 25 24 25 27 27 26 26 26 29 31 25 24 22 20 18 21 22 22 21 20 19 15 21 23 21 21 19